Regional Weather Roundup
Issued by NWS Charleston, SC

Current Version | Previous Version | Graphics & Text | Print | Product List | Glossary On
Versions: 1 2 3 4 5 6 7 8 9 10 11 12 13 14 15 16 17 18 19 20 21 22 23 24 25 26 27 28 29 30 31 32 33 34 35 36 37 38 39 40 41 42 43 44 45 46 47 48 49 50
877
ASUS42 KCHS 271912
RWRCHS

REGIONAL WEATHER ROUNDUP
NATIONAL WEATHER SERVICE CHARLESTON SC
300 PM EDT TUE JUN 27 2017

NOTE: "FAIR" INDICATES FEW OR NO CLOUDS BELOW 12,000 FEET WITH NO
SIGNIFICANT WEATHER AND/OR OBSTRUCTIONS TO VISIBILITY.

NOT ALL STATIONS ARE QUALITY CONTROLLED. USE DATA WITH CAUTION...
ESPECIALLY DEWPOINT OBSERVATIONS.

SCZ027-030-031-034>040-042>050-272000-
...SOUTHEAST SOUTH CAROLINA...

CITY           SKY/WX    TMP DP  RH WIND       PRES   REMARKS
N CHARLESTON   PTSUNNY   87  63  44 VRB5      30.01F
WATERFRONT PRK   N/A     83  66  56 SE10      30.01F
JOHNS ISLAND   FAIR      86  63  45 E9        30.02S
PINOPOLIS        N/A     84  59  42 CALM      29.95F
MONCKS CORNER  FAIR      84  55  37 N5        30.01F
SUMMERVILLE    FAIR      86  63  45 N7        30.02F
BEAUFORT MCAS  CLOUDY    85  72  65 SE3       30.01F HX  91
BEAUFORT ARPT  MOCLDY    81  70  69 CALM      30.02S
HILTON HEAD IS CLOUDY    86  70  58 E6        30.02F HX  90
WALTERBORO     PTCLDY    86  63  45 E6        30.02F
ALLENDALE      FAIR      84  63  48 CALM      30.01F

...SOUTHERN MIDLANDS AND PEE DEE...

CITY           SKY/WX    TMP DP  RH WIND       PRES   REMARKS
GEORGETOWN     FAIR      86  63  45 NE6       30.03F
KINGSTREE      MOCLDY    82  63  51 CALM      30.02F
ORANGEBURG     CLOUDY    86  61  42 VRB3      30.02F
BARNWELL       CLOUDY    88  64  45 N7        30.02F
AIKEN          FAIR      82  59  44 NW8       30.08F
MANNING        CLOUDY    82  64  54 SW12G20   30.02S
COLUMBIA       CLOUDY    88  59  37 W7        30.03F
SUMTER         CLOUDY    85  60  42 NW6       30.01
FLORENCE       MOSUNNY   85  60  42 N9        30.03S
MYRTLE BEACH   MOSUNNY   82  64  54 SE9       30.03F
N MYRTLE BEACH PTSUNNY   83  67  58 S10       30.02F

$$

GAZ063-065-086>088-099>101-113>116-118-119-134>141-150-272000-
...SOUTHEAST GEORGIA...

CITY           SKY/WX    TMP DP  RH WIND       PRES   REMARKS
SAVANNAH ARPT  CLOUDY    78  72  81 E13       30.03F
HUNTER AAF     NOT AVBL
FORT STEWART   NOT AVBL
STATESBORO     MOSUNNY   87  66  49 NE5       30.02F
SYLVANIA       MOCLDY    87  68  54 E3        30.03F HX  90
CLAXTON        FAIR      86  67  52 NW7       30.00F

...CSRA...CENTRAL AND FAR SOUTHEAST GEORGIA...

CITY           SKY/WX    TMP DP  RH WIND       PRES   REMARKS
THOMSON        MOSUNNY   84  57  39 N5        30.10F
AUGUSTA-BUSH   MOSUNNY   89  58  34 N7        30.02F
AUGUSTA-DANIEL PTSUNNY   88  54  31 N9        30.05S
SWAINSBORO     FAIR      86  63  45 N3        30.04F
VIDALIA        CLOUDY    86  70  58 N9        30.02F HX  90
EASTMAN        FAIR      87  51  29 NE7       30.06F
HAZLEHURST     FAIR      87  69  54 N10       30.00F HX  91
ALMA           PTSUNNY   87  72  60 VRB5      29.99F HX  93
WAYCROSS       LGT RAIN  81  81  99 W3        29.99F HX  93
JESUP          MOCLDY    79  72  78 CALM      29.98F
BAXLEY         FAIR      90  75  62 N10G16    29.99F HX 100
BRUNSWICK      DRIZZLE   81  73  78 E10       30.00F
SAINT SIMONS   PTSUNNY   82  73  74 E12       29.99F

$$

SCZ027-028-034-036>038-045-046-048>050-GAZ119-141-272000-
...LAKE AND SUPPLEMENTAL COASTAL OBSERVATIONS...

STATION/POSITION TIME  TEMP    WIND        PRES    WAVE   SWELL
                       AIR SEA DIR/SP/G            HT/PER HT/PER/DIR
                 (UTC) (F)     (DEG/KT/KT) (MB)    (FT/S) (FT/S/D)
WINYAH BAY       NOT AVBL
LAKE MURRAY      1820   83      CALM  /  6 1016.3
ACE BASIN NERRS  NOT AVBL
FORT PULASKI     1842   75 83  130/  4/  7 1017.1R
SAPELO ISLAND    1800   79      50/  5     1016.0

$$

ANZ835-935-AMZ111-154-330-350-352-354-370-450-454-472-272000-
...C-MAN AND BUOY OBSERVATIONS...

STATION/POSITION TIME  TEMP    WIND        PRES    WAVE   SWELL
                       AIR SEA DIR/SP/G            HT/PER HT/PER/DIR
                 (UTC) (F)     (DEG/KT/KT) (MB)    (FT/S) (FT/S/D)
BUOY 41004       1840   80 81   50/  8/ 12 1016.5F
BUOY 41008       1850   80 82   70/ 12/ 14 1015.6F   2/ 8   2/130/ 8
FOLLY BEACH CMAN 1800   83      80/  7/  8 1017.5F
CAPERS NEARSHORE 1808   87 83   90/  6/  8 1016.9F
FRIPP NEARSHORE  1808   81 83   80/  8/ 12 1016.3F


STATION/POSITION TIME  TEMP    WIND        PRES    WAVE   SWELL
                       AIR SEA DIR/SP/G            HT/PER HT/PER/DIR
                 (UTC) (F)     (DEG/KT/KT) (MB)    (FT/S) (FT/S/D)
5E ST. MARYS GA  1830      80                N/A     2/ 8
FRYING PAN BUOY  1850   80 81   10/  4/  4 1016.6F   2/ 8   2/130/ 8
BUOY 41025       1850   80 82   CALM  /  2 1016.6R   2/ 6   2/ 70/ 6
CAPE LOOKOUT NC  1800   80     160/  7/  8 1016.4F
BUOY 41002       1750   77 80  310/ 10/ 12 1017.0    3/ 5   3/220/ 5
BUOY 41010       1850   83 84  240/ 10/ 12 1015.6F   3/ 7   2/130/ 7
ST AUGUSTINE FL  1900   79 80   50/  8/  9 1016.1R


$$




USA.gov is the U.S. government's official web portal to all federal, state and local government web resources and services.